Regional Weather Roundup
Issued by NWS Bismarck, ND

Home | Current Version | Previous Version | Text Only | Print | Product List | Glossary On
Versions: 1 2 3 4 5 6 7 8 9 10 11 12 13 14 15 16 17 18 19 20 21 22 23 24 25 26 27 28 29 30 31 32 33 34 35 36 37 38 39 40 41 42 43 44 45 46 47 48 49 50
000
ASUS43 KBIS 020001
RWRBIS

NWR BROADCAST TEXT
NATIONAL WEATHER SERVICE BISMARCK ND
600 PM CST SUN MAR 01 2015

NOTE: "FAIR" INDICATES FEW OR NO CLOUDS BELOW 12,000 FEET WITH NO
SIGNIFICANT WEATHER AND/OR OBSTRUCTIONS TO VISIBILITY.


CITY           SKY/WX    TMP DP  RH WIND       PRES   REMARKS
WILLISTON      CLEAR     24   8  50 NW3       30.29S
MINOT          CLEAR     20   8  60 W12       30.28S WCI   8
MINOT AFB      NOT AVBL
BISMARCK       CLEAR     23   8  52 NW13      30.34R WCI  11
DICKINSON      FLURRIES  22  11  62 W9        30.26S WCI  12
GARRISON         N/A     19  11  70 W6        30.30R WCI  11
HETTINGER ARPT MOCLDY    22   9  57 W9        30.29R WCI  12
JAMESTOWN      CLEAR     17   6  62 NW10      30.30R WCI   5
CARRINGTON     FAIR      16  10  79 MISG      30.30R
CROSBY         FAIR      18   9  68 W8        30.28S WCI   7
HAZEN          FAIR      23   9  54 NW7       30.33R WCI  15
OAKES            N/A     19  10  68 NW16      30.32R WCI   5
WATFORD CITY   FAIR      19  10  68 SW7       30.27F WCI  10
$$

CITY           SKY/WX    TMP DP  RH WIND       PRES   REMARKS
GRAND FORKS    PTCLDY    18   6  59 NW10      30.29R WCI   6
GRAND FORKS AF PTCLDY    18   8  65 NW9       30.29R WCI   7
DEVILS LAKE    CLEAR     16   7  67 W12       30.27R WCI   3
FARGO          CLOUDY    21  11  65 NW14      30.31R WCI   8
GWINNER        MOCLDY    23  14  68 NW15      30.32R WCI  10
$$

CITY           SKY/WX    TMP DP  RH WIND       PRES   REMARKS
ABERDEEN       CLEAR     24  14  65 NW15      30.35R WCI  11
MOBRIDGE       CLOUDY    26  14  60 NW10      30.31R WCI  16
BUFFALO          N/A     24   9  52 NW15      30.20S WCI  11
RAPID CITY     CLEAR     24  12  60 N16       30.26R WCI  11
GLASGOW        CLEAR     27   7  42 SW7       30.23F WCI  19
SIDNEY         PTCLDY    25  12  58 CALM      30.32F
WOLF POINT     CLOUDY    28   9  44 CALM      30.27F
GLENDIVE       MOCLDY    25   9  50 W3        30.28F
MILES CITY     CLEAR     27   8  44 E3        30.26F
BAKER          CLOUDY    21   9  59 W9        30.27S WCI  11
$$

CITY           SKY/WX    TMP DP  RH WIND       PRES   REMARKS
BILLINGS       PTCLDY    33   3  28 SW8       30.14F
GREAT FALLS    MOSUNNY   33  10  38 S17       30.01F
$$



USA.gov is the U.S. government's official web portal to all federal, state and local government web resources and services.